loading
|

TITAN 3C TRANSTAGE DEB, 3373

Orbit data source: Space-Track

TITAN 3C TRANSTAGE DEB, 3373 is space debris in LEO originally from a launch on Fri, 15 Oct 1965 UTC launched from the Air Force Eastern Test Range (AFETR). Debris objects in space refer to the collection of defunct objects orbiting the Earth. Examples of debris include non-operational satellites, rocket bodies, and fragments generated from explosions, collisions, or faulty payload assembly.

Loading next visibility...
Loading greatness...
TITAN 3C TRANSTAGE DEB details
Identifier
3373, 1965-082ML
Orbit
LEO
Last TLE update2 days ago
Origin
Flag of USUSAF SSD (US)
ManufacturerUnknown
MissionSpacecraft
Bus & MotorUnknown bus, Unknown motor
MassUnknown
Launch date (UTC)
1965-10-15 (59 years ago)
Launch vehicleUnknown
Launch site
Air Force Eastern Test Range (AFETR)
Object type
Payload
Rocket body
Debris
Shape & HBRUnknown
Radar Cross SectionSmall (<0.1 m²)

Expand to show TLE details & history

TLE from 2 days ago
0 TITAN 3C TRANSTAGE DEB
1 03373U 65082ML  24283.02132285  .00031611  00000-0  78525-2 0  9990
2 03373  30.9811 152.1232 0170324 124.4067 237.2782 14.42405212961357
Epoch: 2024-10-09T00:30Z
Definitive object data (Epoch: 2024-10-09T00:30:42.294Z)
Latitude0.00002°
Longitude126.32081°
Altitude816.175 km
Speed7.412 km/s
True Right ascension10h 08m 29s
True Declination0° 00' 00"
Sunlit
Object was in daylight at TLE epoch
Predictive object data (real-time)
Latitude30.30035°
Longitude-140.50036°
Altitude655.351 km
Speed7.584 km/s
Apparent Right ascension13h 00m 58s
Apparent Declination-12° 45' 26"
Sunlit
Object is in daylight
Predictive observer data (real-time)
Local Sidereal Time17:49:03
Azimuth248.654° W
Elevation5.119°
Doppler factor1
Orbital elements
Apogee875.775 km
Perigee632.81 km
Semi-major axis7,132.43 km
Eccentricity0.0170324
Inclination30.9811°
RAAN152.1232°
Arg. of periapsis124.4067°
True anomaly235.65507°
Mean anomaly237.2782°
Eccentric anomaly236.46476°
Mean motion3.60319 °/min
BSTAR0.0078525
Period99.91 mins
No data available

TITAN 3C TRANSTAGE DEB Visibility forecast

Observer location: 39.9160978°, -105.1181434

TITAN 3C TRANSTAGE DEB is not visible in the next 10 days
Span
Click to sort rows by Start time (UTC) header in descending order
Start Az.
Max El. time (UTC)
Max El. Az.
Max El.
End time (UTC)
End Az.